| time (UTC) | temp F | wind direction | speed MPH | gust MPH | rain 1hr in | rain 24hr in | rain mn in | humidity % | barometer mb |
| 20260905033412 | 68 | 360 | 1.0 | 4.0 | 0.00 | 0.00 | 0.00 | 77 | 1016.2 |
| 20260905031912 | 69 | 220 | 1.0 | 2.0 | 0.00 | 0.00 | 0.00 | 76 | 1016.3 |
| 20260905030412 | 70 | 220 | 1.0 | 3.0 | 0.00 | 0.00 | 0.00 | 75 | 1016.4 |
| 20260905024912 | 70 | 291 | 1.0 | 3.0 | 0.00 | 0.00 | 0.00 | 75 | 1016.4 |
| 20260905023411 | 70 | 288 | 1.0 | 4.0 | 0.00 | 0.00 | 0.00 | 75 | 1016.5 |
| 20260905021911 | 70 | 295 | 1.0 | 6.0 | 0.00 | 0.00 | 0.00 | 74 | 1016.4 |
| 20260905020411 | 71 | 298 | 3.0 | 5.0 | 0.00 | 0.00 | 0.00 | 73 | 1016.4 |
| 20260905013411 | 72 | 355 | 0.0 | 3.0 | 0.00 | 0.00 | 0.00 | 70 | 1016.5 |
| 20260905011911 | 75 | 277 | 4.0 | 8.0 | 0.00 | 0.00 | 0.00 | 65 | 1016.5 |
| 20260905010415 | 76 | 265 | 2.0 | 6.0 | 0.00 | 0.00 | 0.00 | 64 | 1016.5 |
| 20260905004915 | 76 | 265 | 5.0 | 13.0 | 0.00 | 0.00 | 0.00 | 64 | 1016.7 |
| 20260905003415 | 76 | 285 | 7.0 | 11.0 | 0.00 | 0.00 | 0.00 | 64 | 1016.5 |
| 20260905001915 | 76 | 292 | 11.0 | 14.0 | 0.00 | 0.00 | 0.00 | 63 | 1016.4 |
| 20260905000417 | 76 | 263 | 5.0 | 11.0 | 0.00 | 0.00 | 0.00 | 63 | 1016.6 |
| 20260904234915 | 76 | 298 | 4.0 | 17.0 | 0.00 | 0.00 | 0.00 | 64 | 1016.6 |
| 20260904233415 | 76 | 17 | 10.0 | 15.0 | 0.00 | 0.00 | 0.00 | 64 | 1016.6 |
| 20260904230414 | 76 | 278 | 6.0 | 12.0 | 0.00 | 0.00 | 0.00 | 64 | 1016.8 |
| 20260904224914 | 76 | 264 | 3.0 | 10.0 | 0.00 | 0.00 | 0.00 | 64 | 1016.7 |
| 20260904223414 | 77 | 265 | 6.0 | 20.0 | 0.00 | 0.00 | 0.00 | 63 | 1016.9 |
| 20260904214914 | 78 | 273 | 10.0 | 19.0 | 0.00 | 0.00 | 0.00 | 61 | 1016.9 |
| 20260904213413 | 78 | 273 | 7.0 | 14.0 | 0.00 | 0.00 | 0.00 | 61 | 1017.0 |
| 20260904211913 | 78 | 281 | 9.0 | 15.0 | 0.00 | 0.00 | 0.00 | 61 | 1017.2 |
| 20260904210413 | 78 | 312 | 6.0 | 10.0 | 0.00 | 0.00 | 0.00 | 60 | 1017.1 |
| 20260904204913 | 78 | 272 | 8.0 | 14.0 | 0.00 | 0.00 | 0.00 | 60 | 1017.0 |
| 20260904203413 | 78 | 293 | 3.0 | 8.0 | 0.00 | 0.00 | 0.00 | 60 | 1017.2 |
| 20260904201912 | 79 | 242 | 1.0 | 6.0 | 0.00 | 0.00 | 0.00 | 58 | 1017.2 |
| 20260904200412 | 79 | 296 | 2.0 | 9.0 | 0.00 | 0.00 | 0.00 | 57 | 1017.2 |
| 20260904194912 | 79 | 270 | 5.0 | 12.0 | 0.00 | 0.00 | 0.00 | 57 | 1017.2 |
| 20260904193412 | 79 | 313 | 3.0 | 11.0 | 0.00 | 0.00 | 0.00 | 57 | 1017.2 |
| 20260904191912 | 80 | 286 | 3.0 | 11.0 | 0.00 | 0.00 | 0.00 | 56 | 1017.4 |
| 20260904190412 | 80 | 271 | 5.0 | 23.0 | 0.00 | 0.00 | 0.00 | 55 | 1017.3 |
| 20260904184912 | 80 | 287 | 9.0 | 17.0 | 0.00 | 0.00 | 0.00 | 55 | 1017.4 |
| 20260904183411 | 81 | 275 | 4.0 | 12.0 | 0.00 | 0.00 | 0.00 | 54 | 1017.4 |
| 20260904181911 | 81 | 294 | 12.0 | 15.0 | 0.00 | 0.00 | 0.00 | 53 | 1017.4 |
| 20260904180411 | 81 | 308 | 12.0 | 15.0 | 0.00 | 0.00 | 0.00 | 53 | 1017.1 |
| 20260904174911 | 81 | 266 | 2.0 | 17.0 | 0.00 | 0.00 | 0.00 | 54 | 1017.0 |
| 20260904173411 | 81 | 271 | 4.0 | 11.0 | 0.00 | 0.00 | 0.00 | 54 | 1017.0 |
| 20260904171911 | 83 | 249 | 6.0 | 11.0 | 0.00 | 0.00 | 0.00 | 52 | 1017.1 |
| 20260904164911 | 85 | 254 | 4.0 | 12.0 | 0.00 | 0.00 | 0.00 | 48 | 1016.9 |
| 20260904161911 | 87 | 215 | 5.0 | 11.0 | 0.00 | 0.00 | 0.00 | 47 | 1017.2 |
| 20260904160411 | 87 | 250 | 6.0 | 13.0 | 0.00 | 0.00 | 0.00 | 45 | 1017.2 |
| 20260904154912 | 87 | 260 | 6.0 | 15.0 | 0.00 | 0.00 | 0.00 | 46 | 1017.3 |
| 20260904151911 | 88 | 261 | 6.0 | 13.0 | 0.00 | 0.00 | 0.00 | 47 | 1017.7 |
| 20260904150411 | 88 | 271 | 5.0 | 12.0 | 0.00 | 0.00 | 0.00 | 47 | 1018.0 |
| 20260904144911 | 89 | 263 | 7.0 | 9.0 | 0.00 | 0.00 | 0.00 | 44 | 1018.1 |
| 20260904143411 | 88 | 236 | 3.0 | 12.0 | 0.00 | 0.00 | 0.00 | 43 | 1018.5 |
| 20260904141911 | 88 | 219 | 7.0 | 10.0 | 0.00 | 0.00 | 0.00 | 46 | 1018.5 |
| 20260904140410 | 89 | 206 | 6.0 | 14.0 | 0.00 | 0.00 | 0.00 | 43 | 1018.7 |
| 20260904134910 | 89 | 206 | 7.0 | 13.0 | 0.00 | 0.00 | 0.00 | 42 | 1018.6 |
| 20260904133410 | 88 | 224 | 6.0 | 12.0 | 0.00 | 0.00 | 0.00 | 44 | 1018.9 |
| 20260904131910 | 88 | 263 | 5.0 | 10.0 | 0.00 | 0.00 | 0.00 | 45 | 1019.0 |
| 20260904130410 | 87 | 194 | 8.0 | 18.0 | 0.00 | 0.00 | 0.00 | 42 | 1019.2 |
| 20260904124912 | 88 | 209 | 9.0 | 12.0 | 0.00 | 0.00 | 0.00 | 44 | 1019.5 |
| 20260904123412 | 87 | 231 | 5.0 | 11.0 | 0.00 | 0.00 | 0.00 | 44 | 1019.8 |
| 20260904121912 | 87 | 258 | 5.0 | 16.0 | 0.00 | 0.00 | 0.00 | 42 | 1020.0 |
| 20260904120411 | 86 | 273 | 5.0 | 9.0 | 0.00 | 0.00 | 0.00 | 45 | 1020.1 |
| 20260904114911 | 85 | 301 | 3.0 | 6.0 | 0.00 | 0.00 | 0.00 | 49 | 1020.2 |
| 20260904113411 | 84 | 295 | 1.0 | 3.0 | 0.00 | 0.00 | 0.00 | 50 | 1020.7 |
| 20260904111911 | 83 | 9 | 1.0 | 3.0 | 0.00 | 0.00 | 0.00 | 51 | 1020.9 |
| 20260904104911 | 82 | 48 | 5.0 | 6.0 | 0.00 | 0.00 | 0.00 | 55 | 1021.4 |
| 20260904103410 | 80 | 57 | 3.0 | 6.0 | 0.00 | 0.00 | 0.00 | 56 | 1021.2 |
| 20260904101910 | 80 | 92 | 1.0 | 7.0 | 0.00 | 0.00 | 0.00 | 57 | 1021.6 |
| 20260904100410 | 79 | 69 | 2.0 | 4.0 | 0.00 | 0.00 | 0.00 | 58 | 1021.7 |
| 20260904094910 | 78 | 23 | 1.0 | 4.0 | 0.00 | 0.00 | 0.00 | 62 | 1021.8 |
| 20260904093410 | 77 | 288 | 0.0 | 2.0 | 0.00 | 0.00 | 0.00 | 61 | 1021.9 |
| 20260904091910 | 76 | 285 | 1.0 | 4.0 | 0.00 | 0.00 | 0.00 | 62 | 1022.1 |
| 20260904090410 | 75 | 346 | 1.0 | 2.0 | 0.00 | 0.00 | 0.00 | 62 | 1022.2 |
| 20260904084914 | 74 | 331 | 2.0 | 3.0 | 0.00 | 0.00 | 0.00 | 64 | 1022.3 |
| 20260904083413 | 73 | 71 | 2.0 | 3.0 | 0.00 | 0.00 | 0.00 | 64 | 1022.3 |
| 20260904081913 | 73 | 22 | 1.0 | 3.0 | 0.00 | 0.00 | 0.00 | 62 | 1022.3 |
| 20260904080413 | 72 | 309 | 1.0 | 3.0 | 0.00 | 0.00 | 0.00 | 69 | 1022.2 |
| 20260904074913 | 71 | 300 | 3.0 | 4.0 | 0.00 | 0.00 | 0.00 | 72 | 1022.1 |
| 20260904073413 | 70 | 296 | 3.0 | 4.0 | 0.00 | 0.00 | 0.00 | 73 | 1022.2 |
| 20260904071913 | 69 | 297 | 1.0 | 4.0 | 0.00 | 0.00 | 0.00 | 75 | 1022.1 |
| 20260904070413 | 67 | 290 | 2.0 | 4.0 | 0.00 | 0.00 | 0.00 | 78 | 1022.1 |
| 20260904064913 | 67 | 310 | 1.0 | 4.0 | 0.00 | 0.00 | 0.00 | 80 | 1022.2 |
| 20260904063413 | 65 | 311 | 2.0 | 3.0 | 0.00 | 0.00 | 0.00 | 83 | 1022.2 |
| 20260904061912 | 64 | 205 | 0.0 | 0.0 | 0.00 | 0.00 | 0.00 | 85 | 1022.2 |
| 20260904060412 | 63 | 205 | 0.0 | 0.0 | 0.00 | 0.00 | 0.00 | 85 | 1022.2 |
| 20260904054912 | 62 | 205 | 0.0 | 0.0 | 0.00 | 0.00 | 0.00 | 87 | 1022.1 |
| 20260904053412 | 62 | 205 | 0.0 | 0.0 | 0.00 | 0.00 | 0.00 | 87 | 1022.1 |
| 20260904051912 | 62 | 205 | 0.0 | 0.0 | 0.00 | 0.00 | 0.00 | 87 | 1022.0 |
| 20260904050412 | 62 | 205 | 0.0 | 2.0 | 0.00 | 0.00 | 0.00 | 88 | 1021.9 |
| 20260904044914 | 60 | 205 | 2.0 | 3.0 | 0.00 | 0.00 | 0.00 | 88 | 1021.8 |
| 20260904043414 | 61 | 205 | 2.0 | 3.0 | 0.00 | 0.00 | 0.00 | 87 | 1021.7 |
| 20260904041914 | 62 | 205 | 0.0 | 0.0 | 0.00 | 0.00 | 0.00 | 85 | 1021.6 |
| 20260904040414 | 62 | 205 | 0.0 | 0.0 | 0.00 | 0.00 | 0.00 | 86 | 1021.3 |
| 20260904034914 | 62 | 205 | 0.0 | 1.0 | 0.00 | 0.00 | 0.00 | 86 | 1021.3 |